C/2007 Y1 ( LINEAR )

Japanese version
Home page
Total 5,708 html files since Dec. 4, 1995
Updated on April 20, 2008

---------------------------------------------------------------------

* Profile

Discovery Date December 16, 2007
Magnitude 18.8 mag
Discoverer Lincoln Laboratory Near-Earth Asteroid Research project

* Pictures

* Orbital Elements

Epoch 2008 Apr. 4.0 TT = JDT 2454560.5
T 2008 Mar. 19.32144 TT                                 MPC
q   3.3408225            (2000.0)            P               Q
z  -0.0001152      Peri.  357.12499     -0.69494887     +0.21729293
 +/-0.0000714      Node   133.09228     +0.67703540     -0.12337045
e   1.0003850      Incl.  110.17665     +0.24221710     +0.96827863

* Magnitudes Graph

        m1 = 10.3 + 5 log d + 10.0 log r

---------------------------------------------------------------------

The orbital elements are published on M.P.E.C. 2008-E13.
The magnitudes graphs are made with Comet for Windows.

---------------------------------------------------------------------

Copyright(C) 1995-2007 Seiichi Yoshida (comet@aerith.net). All rights reserved.